Theta_e
324 324 325 325 325 325 325 324 325 324 324 324 324 322 319 317 312 309 307 303 302 302 303 304 303 300 296 294 293 293 293 293 291 290 291 291 291 290 289 288 287 287 285
324 324 325 325 325 324 325 325 325 325 325 325 323 322 319 317 313 309 305 303 302 298 299 299 298 295 293 293 293 293 292 292 292 290 290 290 289 289 288 287 286 286 286
325 325 325 325 324 324 325 325 324 323 322 322 322 322 318 315 311 309 306 307 299 299 298 297 295 293 293 292 292 292 291 291 291 290 290 289 288 288 287 286 286 286 286
325 325 325 325 325 324 326 327 325 326 323 322 321 318 317 311 310 306 306 301 301 297 297 295 294 294 293 292 292 291 291 290 289 288 288 287 287 286 286 285 285 286 286
326 326 326 325 325 324 324 325 324 323 321 322 316 309 307 306 308 308 304 304 298 297 294 294 293 293 292 292 292 291 290 289 288 287 286 286 285 285 286 286 284 284 284
322 323 324 325 325 325 325 324 323 319 317 312 306 308 307 309 312 310 306 299 297 299 294 294 292 292 292 292 291 290 290 290 289 287 287 286 286 286 286 285 283 282 282
314 316 318 318 317 318 318 317 314 312 310 310 309 310 310 309 311 306 303 298 302 295 295 293 293 292 292 291 290 289 289 288 289 288 287 287 286 286 285 284 283 282 282
311 312 312 313 313 313 313 313 312 311 311 310 308 306 308 308 301 305 302 300 295 295 295 293 293 292 292 291 290 289 289 289 288 288 287 287 286 285 285 284 283 282 281
307 309 310 311 310 309 309 309 309 307 307 307 310 307 304 303 302 304 299 295 295 295 294 294 293 292 292 291 290 289 289 288 288 287 286 285 285 284 284 283 282 280 279
297 300 304 308 310 310 310 308 307 307 306 304 302 302 301 303 301 298 296 295 294 293 293 292 292 292 291 290 290 289 288 289 288 286 285 284 284 284 283 283 281 280 279
295 299 302 303 307 310 310 308 307 305 303 302 301 302 301 301 300 299 296 295 294 293 292 292 292 292 291 290 289 289 289 288 287 286 285 284 284 283 282 282 281 280 279
293 297 299 301 303 304 306 306 304 303 302 302 300 298 298 298 296 297 295 294 294 293 293 292 291 291 290 289 288 289 287 286 286 285 284 284 284 284 284 283 283 282 281
290 292 296 297 298 301 301 301 299 299 298 297 296 296 296 296 295 294 293 293 293 292 292 291 290 290 289 289 288 287 287 286 286 285 285 285 284 284 283 283 282 281 281
288 290 292 294 295 296 297 300 297 297 297 296 295 294 295 295 294 293 292 292 292 291 290 290 289 289 289 289 287 287 287 286 286 286 285 284 284 283 283 281 281 280 280
286 287 290 291 292 293 293 294 297 297 298 300 299 298 296 295 296 294 292 290 291 291 290 289 289 289 288 287 286 286 285 285 285 284 284 283 283 282 282 281 280 280 278
284 285 287 289 289 290 291 292 293 293 295 294 298 300 298 297 296 295 292 291 291 290 290 289 288 288 287 286 286 285 285 284 284 284 283 283 282 282 281 280 279 279 277
284 285 286 288 288 289 290 290 290 290 291 291 292 294 295 296 295 293 290 289 289 290 290 288 287 286 286 285 285 284 284 283 283 283 283 282 282 281 280 279 278 277 276
284 284 285 286 287 288 288 289 289 289 288 288 289 290 291 290 290 289 289 289 286 287 287 286 285 284 284 284 283 283 282 281 280 280 280 279 279 278 278 277 276 274 274
284 283 283 284 285 286 287 287 287 287 286 287 287 287 287 288 288 287 287 286 284 284 284 284 283 283 282 281 281 280 280 279 279 278 277 276 276 275 274 274 273 272 271
284 284 283 282 283 284 284 284 283 283 283 284 284 284 285 286 285 284 284 284 284 283 282 281 280 280 279 279 278 278 277 276 276 275 275 274 273 273 272 271 271 270 269
285 285 284 284 281 280 282 281 281 282 282 282 283 284 285 284 281 281 281 281 280 280 279 279 278 278 277 276 276 275 274 274 274 273 272 272 271 271 270 270 270 269 269
284 285 284 283 283 283 281 280 281 281 280 279 278 278 281 280 279 279 278 277 277 277 277 276 276 275 274 274 273 273 273 273 273 272 271 271 271 270 270 270 270 269 269
283 283 282 281 280 280 279 279 279 278 278 277 277 277 278 276 275 274 274 274 274 274 274 273 273 273 272 272 272 273 274 273 273 272 271 270 270 270 269 269 269 268 268
281 281 281 281 280 280 279 278 277 277 276 276 276 275 275 274 274 273 272 272 272 272 272 272 272 272 272 272 272 272 272 272 272 271 271 270 270 270 270 269 269 269 268
280 280 280 279 279 278 277 276 276 275 274 274 273 273 272 272 272 271 271 271 271 272 272 272 272 271 271 271 271 271 271 271 271 270 270 270 270 270 270 269 269 269 269
278 278 277 277 276 276 275 274 273 272 272 271 271 270 270 270 270 270 271 271 271 271 271 271 271 270 270 270 270 270 270 270 270 270 270 270 270 270 270 269 269 269 269
Wind_Speed
37 39 38 38 40 41 43 43 44 42 39 38 38 36 38 37 35 34 30 27 27 26 28 28 25 23 21 20 18 16 15 13 8 8 10 12 12 13 12 13 11 10 11
34 33 37 35 39 41 44 44 44 44 41 41 39 38 38 39 38 37 34 33 30 30 28 27 26 24 22 21 19 17 16 14 11 10 11 13 13 12 13 15 13 12 12
31 31 30 33 35 38 42 41 40 40 40 38 41 41 42 43 41 40 38 35 33 32 29 29 29 26 25 23 21 19 17 16 14 11 10 10 11 12 13 16 15 13 14
30 31 29 31 38 40 42 36 39 37 39 40 44 45 46 43 41 37 36 32 31 30 29 29 27 27 26 23 22 21 18 17 15 13 12 12 13 13 15 17 18 13 13
26 28 30 31 33 34 33 37 39 40 41 42 43 40 38 38 36 36 37 31 31 30 30 26 26 25 22 20 22 22 20 18 16 15 13 13 13 12 14 12 14 14 16
13 16 21 27 31 33 34 37 38 37 36 36 32 34 32 33 32 35 36 34 35 32 31 27 27 26 22 22 21 20 18 19 19 18 19 17 19 16 15 15 15 14 5
3 6 11 13 17 22 27 28 29 28 28 27 28 27 32 35 31 32 30 33 33 32 29 29 28 25 22 22 21 20 19 17 19 19 20 18 17 17 15 15 15 14 14
8 7 9 9 10 14 18 21 24 25 25 26 25 27 27 25 33 30 29 29 30 28 28 27 26 24 22 22 22 21 20 18 17 19 18 17 15 15 15 15 15 15 16
8 11 10 7 10 13 15 16 17 19 20 24 24 26 28 27 27 24 26 30 29 27 26 25 24 21 19 21 22 21 19 16 15 18 19 18 16 16 15 15 15 12 8
14 13 12 11 12 14 14 16 17 18 20 20 22 22 24 22 22 24 25 28 28 27 24 22 21 19 19 20 20 19 17 15 15 16 17 15 13 13 10 11 10 12 11
18 13 11 14 15 15 16 18 20 20 18 18 20 19 20 20 19 20 25 27 29 26 26 24 20 18 18 17 17 16 15 14 11 12 10 10 10 11 11 13 14 16 16
18 15 12 10 14 18 18 19 19 19 20 20 18 17 18 17 18 20 24 24 24 24 25 19 16 13 14 14 14 13 12 11 9 9 8 6 7 8 8 10 12 14 17
22 18 13 14 15 16 18 20 20 21 23 22 20 20 19 19 20 21 20 22 20 18 14 12 9 10 11 11 9 10 12 12 9 7 8 8 9 9 8 8 8 10 11
28 25 21 16 15 16 18 22 25 26 24 19 20 19 19 18 21 21 21 20 18 16 12 10 10 10 9 8 11 11 10 9 8 9 10 7 8 8 7 8 9 9 11
27 25 23 19 16 15 18 20 22 22 23 26 25 21 19 21 25 24 23 22 20 17 17 14 13 11 12 13 13 10 8 7 8 9 8 8 7 7 8 8 9 10 10
23 23 23 22 18 15 15 17 15 16 16 17 18 19 21 19 17 20 22 21 21 22 19 16 16 17 17 17 16 13 10 9 9 9 7 6 6 7 9 10 11 12 14
25 24 24 19 17 15 13 12 7 3 7 8 8 11 13 14 14 16 21 22 20 19 16 18 18 18 17 15 14 12 11 10 8 7 7 8 9 10 11 11 11 13 15
20 19 19 17 13 14 11 10 9 8 9 11 5 6 10 13 19 22 22 21 19 13 15 17 16 16 15 15 14 12 9 8 6 4 4 4 6 7 8 10 10 12 14
21 22 19 16 12 6 3 5 8 10 14 19 21 18 19 21 23 24 21 20 19 17 16 17 16 15 14 12 9 7 7 6 4 3 3 3 4 6 7 9 10 10 11
18 19 19 17 13 8 6 9 10 14 15 19 22 19 20 24 22 18 16 17 18 18 17 17 14 13 10 8 6 4 4 4 2 1 2 3 4 5 7 8 9 10 11
18 19 18 18 17 13 11 14 13 15 16 17 19 16 16 21 20 19 19 18 17 16 14 13 11 7 7 7 7 7 6 5 3 1 2 3 4 5 6 7 8 9 12
14 16 17 16 14 15 14 13 18 20 19 20 19 18 16 20 21 20 18 16 14 12 11 9 9 8 7 7 7 6 5 4 3 3 3 4 4 4 6 8 11 13 15
9 10 13 14 14 14 15 15 15 16 16 15 15 17 16 17 16 15 14 13 12 12 11 10 10 9 7 6 6 6 5 4 3 3 4 3 3 4 8 11 14 15 16
7 9 10 10 10 11 12 13 13 12 12 13 14 14 14 15 15 13 13 12 12 13 12 11 9 7 6 5 5 5 4 3 3 4 3 2 4 7 11 13 15 16 18
6 5 6 6 7 9 9 9 9 10 10 11 12 12 13 13 14 13 13 13 12 12 11 10 8 7 5 4 4 3 3 4 4 3 3 5 7 10 13 16 18 20 21
4 4 4 5 6 6 7 8 8 8 10 10 11 11 11 12 12 12 13 12 12 11 9 8 7 5 4 3 4 4 3 4 2 3 6 8 11 14 16 18 20 22 23
Wind_Direction
204 205 206 209 215 217 225 231 234 236 234 233 232 231 229 226 222 220 218 219 224 224 223 224 216 212 210 211 212 209 206 203 187 200 209 217 228 239 246 252 257 273 280
208 206 206 206 212 217 224 233 236 237 237 234 233 231 231 227 223 219 215 212 211 218 216 216 212 202 202 207 209 208 210 206 209 197 207 223 233 243 250 257 262 271 279
206 206 205 206 208 215 227 230 234 238 240 237 232 229 228 225 220 217 216 212 206 217 213 212 210 202 203 202 206 208 208 211 217 212 213 222 237 247 256 263 267 273 280
207 207 204 206 213 219 229 227 237 241 242 239 235 232 227 224 219 217 216 210 213 211 215 212 211 209 211 206 208 212 211 214 220 223 227 237 245 253 263 267 271 277 281
211 207 209 214 216 220 222 229 232 232 237 237 233 225 223 221 215 216 217 209 209 210 212 209 213 215 216 217 218 215 213 215 221 227 230 239 247 248 255 272 271 285 289
219 209 212 216 220 227 232 235 235 235 230 228 224 222 223 226 220 218 210 206 205 207 208 206 211 213 211 218 223 227 231 224 227 229 237 239 256 261 268 271 275 284 306
303 257 247 240 228 223 225 226 227 227 230 227 228 226 220 222 224 215 211 209 211 204 208 208 208 213 213 218 223 227 230 231 240 252 251 254 264 273 276 271 268 269 268
331 293 257 234 231 234 230 230 227 229 226 227 219 220 219 221 223 212 209 212 212 208 210 211 215 214 214 219 222 226 230 235 242 252 257 265 266 269 273 273 276 277 279
296 291 288 263 235 227 223 224 225 221 214 218 216 217 215 214 217 213 207 207 209 210 210 211 214 216 219 224 225 227 232 237 243 248 255 260 263 263 262 265 266 273 287
339 314 292 267 248 241 237 228 221 218 223 222 222 220 219 210 207 208 212 210 206 207 208 211 214 214 220 225 228 231 236 245 247 250 253 253 255 256 255 266 261 263 272
340 325 303 282 259 251 246 240 233 225 223 220 217 215 216 213 212 213 215 211 212 208 210 208 212 215 219 227 232 233 244 248 243 248 250 254 254 249 253 262 269 268 265
346 328 308 287 274 259 243 233 223 219 207 206 209 211 212 212 212 215 216 216 216 215 215 213 213 215 220 226 228 234 234 241 239 241 244 256 281 277 279 269 270 268 269
350 342 315 294 279 260 243 231 214 207 207 202 201 202 210 205 207 208 212 216 216 214 210 195 191 197 201 210 220 220 212 224 227 232 243 266 282 286 281 278 278 281 281
355 348 337 315 302 275 249 233 228 211 206 210 205 211 208 204 208 205 201 208 204 196 185 172 172 181 188 201 198 197 205 212 222 232 250 261 269 280 280 287 287 290 291
356 349 342 325 305 287 264 249 238 239 230 212 215 215 211 213 217 210 200 191 189 185 177 174 175 180 184 190 190 189 179 189 212 228 249 269 284 293 299 298 290 284 275
354 349 341 331 315 289 275 258 253 252 251 249 240 222 217 225 215 211 199 193 189 182 177 182 188 195 193 191 187 182 186 205 225 233 236 242 262 279 286 287 287 284 282
0 351 344 338 322 295 271 241 210 192 194 218 225 213 207 209 179 182 183 180 177 185 188 191 194 190 186 184 182 178 174 185 202 221 235 245 257 266 276 282 288 291 297
8 7 354 342 326 301 268 235 201 174 125 98 111 180 164 171 152 150 161 163 150 172 180 172 163 161 161 168 167 163 165 175 180 198 228 254 267 280 286 291 294 303 313
14 13 11 2 353 334 254 176 160 136 108 103 104 105 119 124 121 132 144 147 143 137 140 143 151 150 152 156 154 169 181 194 207 233 254 268 280 293 298 299 300 309 317
26 23 28 27 18 31 68 83 85 97 95 101 104 110 120 122 113 113 122 130 131 135 142 139 142 146 151 154 158 170 171 161 159 203 259 278 297 306 308 311 321 332 335
32 37 36 45 43 36 67 84 92 97 89 85 95 113 125 121 115 112 115 121 125 131 134 138 140 149 155 157 148 149 148 131 119 70 329 324 331 326 323 331 334 341 340
37 42 47 51 61 65 64 81 106 108 103 96 92 91 110 111 114 117 120 121 123 132 133 137 134 137 143 143 135 133 116 96 71 38 356 350 355 355 351 2 353 347 341
43 60 63 62 63 73 83 93 100 104 103 98 99 101 104 106 108 111 113 116 124 126 123 124 126 134 138 131 118 106 91 71 44 9 339 347 2 1 358 356 343 338 333
33 47 52 63 72 79 86 91 94 94 97 102 109 112 114 116 117 117 119 123 123 118 117 119 119 118 112 100 80 69 65 50 20 5 353 343 347 347 344 338 332 331 322
13 31 59 70 80 90 96 100 104 108 112 115 115 118 121 121 121 123 123 122 119 115 114 113 113 112 101 86 69 43 39 33 16 11 341 326 333 337 329 325 325 321 319
9 30 65 84 92 98 108 115 116 117 116 116 119 120 119 117 117 118 117 117 112 109 108 109 105 96 75 52 30 4 351 0 333 340 325 317 319 316 322 322 317 313 312